TimeAKST,TemperatureF,Dew PointF,Humidity,Sea Level PressureIn,VisibilityMPH,Wind Direction,Wind SpeedMPH,Gust SpeedMPH,PrecipitationIn,Events,Conditions,WindDirDegrees,DateUTC
12:53 AM,5.0,1.9,87,30.21,10.0,West,3.5,-,N/A,,Mostly Cloudy,280,2013-01-16 09:53:00
1:53 AM,7.0,3.9,87,30.21,10.0,Calm,Calm,-,N/A,,Overcast,0,2013-01-16 10:53:00
2:51 AM,8.6,5.0,85,30.17,2.5,West,4.6,-,0.00,Snow,Light Snow,260,2013-01-16 11:51:00
2:53 AM,8.1,5.0,87,30.20,2.5,West,4.6,-,0.00,Snow,Light Snow,260,2013-01-16 11:53:00
3:11 AM,8.6,6.8,92,30.17,3.0,WSW,3.5,-,0.01,Snow,Light Snow,250,2013-01-16 12:11:00
3:31 AM,8.6,5.0,85,30.17,8.0,WNW,3.5,-,0.01,Snow,Light Snow,290,2013-01-16 12:31:00
3:53 AM,9.0,5.0,84,30.20,10.0,Calm,Calm,-,0.01,,Overcast,0,2013-01-16 12:53:00
4:53 AM,8.1,1.9,76,30.20,4.0,West,5.8,-,0.00,Snow,Light Snow,280,2013-01-16 13:53:00
5:53 AM,5.0,-2.9,70,30.19,10.0,WNW,3.5,-,0.00,,Mostly Cloudy,290,2013-01-16 14:53:00
7:24 AM,3.2,-4.0,72,30.17,10.0,NW,5.8,-,N/A,,Mostly Cloudy,310,2013-01-16 16:24:00
7:53 AM,3.9,-4.0,70,30.20,9.0,NW,3.5,-,0.00,Snow,Light Snow,310,2013-01-16 16:53:00
8:11 AM,3.2,-2.2,78,30.17,5.0,WNW,4.6,-,0.00,Snow,Light Snow,300,2013-01-16 17:11:00
8:33 AM,3.2,-2.2,78,30.17,3.0,WNW,4.6,-,0.00,Snow,Light Snow,300,2013-01-16 17:33:00
8:53 AM,3.0,-2.0,80,30.20,5.0,Calm,Calm,-,0.00,Snow,Light Snow,0,2013-01-16 17:53:00
9:53 AM,1.9,-2.9,80,30.19,5.0,North,3.5,-,0.00,Snow,Light Snow,350,2013-01-16 18:53:00
10:53 AM,1.9,-2.9,80,30.18,3.0,North,3.5,-,0.00,Snow,Light Snow,350,2013-01-16 19:53:00
11:53 AM,3.0,-2.9,76,30.17,5.0,NNW,4.6,-,0.00,Snow,Light Snow,330,2013-01-16 20:53:00
12:53 PM,3.0,-2.9,76,30.17,5.0,NW,5.8,-,0.00,Snow,Light Snow,320,2013-01-16 21:53:00
1:53 PM,3.0,-2.9,76,30.15,5.0,NW,4.6,-,0.00,Snow,Light Snow,320,2013-01-16 22:53:00
2:53 PM,3.0,-2.9,76,30.13,9.0,NW,4.6,-,0.00,Snow,Light Snow,320,2013-01-16 23:53:00
3:53 PM,3.0,-4.0,73,30.12,9.0,NW,6.9,-,0.00,Snow,Light Snow,310,2013-01-17 00:53:00
4:53 PM,3.0,-4.0,73,30.11,10.0,NNW,4.6,-,0.00,,Overcast,330,2013-01-17 01:53:00
5:53 PM,3.0,-6.0,66,30.10,10.0,NNW,6.9,-,N/A,,Overcast,330,2013-01-17 02:53:00
6:53 PM,3.0,-6.0,66,30.04,9.0,North,8.1,-,N/A,,Overcast,350,2013-01-17 03:53:00
7:53 PM,3.0,-6.0,66,30.06,10.0,North,5.8,-,N/A,,Overcast,350,2013-01-17 04:53:00
8:53 PM,1.9,-5.1,72,30.05,7.0,NNW,8.1,-,0.00,Snow,Light Snow,340,2013-01-17 05:53:00
11:53 PM,1.9,-5.1,72,30.02,4.0,NNW,4.6,-,0.00,Snow,Light Snow,330,2013-01-17 08:53:00